• In Austria
  • List of Countries
  • For 7 days
  • Water Temperature
  • Satellite Maps
  • Weather Map
  • News
  • Weather Widgets
  • user-avatar
    Login

    Hourly Weather Alborg

    Today, 23 September, Sunday

    Time Temperature Precipitation Wind Pressure Humidity
    00:00 +8°C° 0 mm 9 mps 753 mmHg 77%
    01:00 +8°C° 0 mm 9 mps 754 mmHg 77%
    02:00 +8°C° 0 mm 9 mps 754 mmHg 76%
    03:00 +8°C° 0 mm 9 mps 754 mmHg 76%
    04:00 +8°C° 0 mm 9 mps 754 mmHg 75%
    05:00 +8°C° 0 mm 9 mps 754 mmHg 76%
    06:00 +8°C° 0 mm 9 mps 754 mmHg 76%
    07:00 +8°C° 0 mm 9 mps 754 mmHg 77%
    08:00 +10°C° 0 mm 9 mps 754 mmHg 73%
    09:00 +11°C° 0 mm 9 mps 754 mmHg 68%
    10:00 +12°C° 0 mm 9 mps 755 mmHg 64%
    11:00 +12°C° 0 mm 9 mps 755 mmHg 62%
    12:00 +12°C° 0 mm 9 mps 755 mmHg 60%
    13:00 +12°C° 0 mm 9 mps 755 mmHg 58%
    14:00 +12°C° 0 mm 9 mps 755 mmHg 59%
    15:00 +12°C° 0 mm 9 mps 754 mmHg 59%
    16:00 +11°C° 0 mm 9 mps 754 mmHg 59%
    17:00 +10°C° 0 mm 9 mps 754 mmHg 61%
    18:00 +10°C° 0 mm 8 mps 755 mmHg 62%
    19:00 +9°C° 0 mm 8 mps 755 mmHg 63%
    20:00 +9°C° 0 mm 8 mps 756 mmHg 62%
    21:00 +8°C° 0 mm 9 mps 756 mmHg 61%
    22:00 +7°C° 0 mm 9 mps 757 mmHg 60%
    23:00 +7°C° 0 mm 9 mps 757 mmHg 60%

    Tomorrow, 24 September, Monday

    Time Temperature Precipitation Wind Pressure Humidity
    00:00 +7°C° 0 mm 9 mps 758 mmHg 60%
    01:00 +7°C° 0 mm 9 mps 758 mmHg 60%
    02:00 +7°C° 0.1 mm 9 mps 759 mmHg 59%
    03:00 +7°C° 0.1 mm 9 mps 759 mmHg 59%
    04:00 +6°C° 0.1 mm 9 mps 760 mmHg 58%
    05:00 +6°C° 0.2 mm 9 mps 761 mmHg 59%
    06:00 +6°C° 0.2 mm 8 mps 762 mmHg 60%
    07:00 +6°C° 0.2 mm 8 mps 762 mmHg 61%
    08:00 +8°C° 0.5 mm 7 mps 763 mmHg 60%
    09:00 +8°C° 0.5 mm 7 mps 764 mmHg 60%
    10:00 +9°C° 0.5 mm 6 mps 765 mmHg 59%
    11:00 +9°C° 0.2 mm 6 mps 765 mmHg 56%
    12:00 +10°C° 0.2 mm 6 mps 766 mmHg 53%
    13:00 +10°C° 0.2 mm 5 mps 767 mmHg 50%
    14:00 +10°C° 0 mm 6 mps 767 mmHg 50%
    15:00 +10°C° 0 mm 6 mps 768 mmHg 49%
    16:00 +10°C° 0 mm 7 mps 768 mmHg 48%
    17:00 +9°C° 0 mm 6 mps 768 mmHg 50%
    18:00 +8°C° 0 mm 6 mps 769 mmHg 52%
    19:00 +8°C° 0 mm 5 mps 769 mmHg 54%
    20:00 +7°C° 0 mm 6 mps 770 mmHg 55%
    21:00 +7°C° 0 mm 6 mps 770 mmHg 57%
    22:00 +7°C° 0 mm 6 mps 771 mmHg 58%
    23:00 +7°C° 0 mm 6 mps 771 mmHg 60%

    Day after tomorrow, 25 September, Tuesday

    Time Temperature Precipitation Wind Pressure Humidity
    00:00 +5°C° 0 mm 6 mps 772 mmHg 63%
    01:00 +6°C° 0 mm 5 mps 772 mmHg 66%
    02:00 +6°C° 0 mm 5 mps 772 mmHg 68%
    03:00 +6°C° 0 mm 5 mps 772 mmHg 70%
    04:00 +5°C° 0 mm 5 mps 773 mmHg 72%
    05:00 +6°C° 0 mm 5 mps 773 mmHg 74%
    06:00 +6°C° 0 mm 5 mps 773 mmHg 76%
    07:00 +6°C° 0 mm 5 mps 773 mmHg 79%
    08:00 +8°C° 0 mm 5 mps 773 mmHg 74%
    09:00 +10°C° 0 mm 6 mps 773 mmHg 69%
    10:00 +13°C° 0 mm 6 mps 773 mmHg 64%
    11:00 +13°C° 0 mm 6 mps 773 mmHg 64%
    12:00 +12°C° 0 mm 7 mps 773 mmHg 64%
    13:00 +14°C° 0 mm 7 mps 773 mmHg 63%
    14:00 +14°C° 0 mm 7 mps 773 mmHg 65%
    15:00 +14°C° 0 mm 7 mps 773 mmHg 66%
    16:00 +14°C° 0 mm 7 mps 773 mmHg 67%
    17:00 +12°C° 0 mm 7 mps 772 mmHg 72%
    18:00 +11°C° 0 mm 7 mps 772 mmHg 78%
    19:00 +10°C° 0 mm 7 mps 772 mmHg 83%
    20:00 +9°C° 0 mm 7 mps 772 mmHg 83%
    21:00 +9°C° 0 mm 7 mps 771 mmHg 84%
    22:00 +9°C° 0 mm 7 mps 771 mmHg 85%
    23:00 +10°C° 0 mm 8 mps 770 mmHg 82%

    26 September, Wednesday

    Time Temperature Precipitation Wind Pressure Humidity
    00:00 +10°C° 0 mm 9 mps 769 mmHg 78%
    01:00 +11°C° 0 mm 10 mps 768 mmHg 75%
    02:00 +11°C° 0 mm 10 mps 768 mmHg 73%
    03:00 +11°C° 0 mm 11 mps 767 mmHg 71%
    04:00 +11°C° 0 mm 11 mps 766 mmHg 69%
    05:00 +10°C° 0.1 mm 12 mps 765 mmHg 71%
    06:00 +12°C° 0.1 mm 12 mps 764 mmHg 72%
    07:00 +12°C° 0.1 mm 13 mps 764 mmHg 74%
    08:00 +12°C° 0.3 mm 13 mps 763 mmHg 77%
    09:00 +12°C° 0.3 mm 13 mps 763 mmHg 81%
    10:00 +12°C° 0.3 mm 13 mps 762 mmHg 84%
    11:00 +13°C° 0.3 mm 13 mps 762 mmHg 85%
    12:00 +13°C° 0.3 mm 12 mps 762 mmHg 85%
    13:00 +13°C° 0.3 mm 12 mps 762 mmHg 86%
    14:00 +13°C° 0.1 mm 11 mps 761 mmHg 87%
    15:00 +13°C° 0.1 mm 11 mps 761 mmHg 87%
    16:00 +14°C° 0.1 mm 10 mps 761 mmHg 88%
    17:00 +13°C° 0.1 mm 10 mps 761 mmHg 88%
    18:00 +13°C° 0.1 mm 9 mps 762 mmHg 88%
    19:00 +13°C° 0.1 mm 8 mps 762 mmHg 88%
    20:00 +13°C° 0 mm 8 mps 762 mmHg 87%
    21:00 +12°C° 0 mm 8 mps 763 mmHg 86%
    22:00 +12°C° 0 mm 7 mps 763 mmHg 86%
    23:00 +12°C° 0 mm 7 mps 763 mmHg 86%

    27 September, Thursday

    Time Temperature Precipitation Wind Pressure Humidity
    00:00 +11°C° 0 mm 7 mps 764 mmHg 86%
    01:00 +11°C° 0 mm 7 mps 764 mmHg 85%
    02:00 +11°C° 0 mm 6 mps 764 mmHg 86%
    03:00 +10°C° 0 mm 6 mps 764 mmHg 86%
    04:00 +10°C° 0 mm 6 mps 764 mmHg 87%
    05:00 +10°C° 0 mm 6 mps 764 mmHg 86%
    06:00 +12°C° 0 mm 5 mps 764 mmHg 86%
    07:00 +12°C° 0 mm 5 mps 764 mmHg 86%
    08:00 +13°C° 0 mm 5 mps 764 mmHg 84%
    09:00 +13°C° 0 mm 6 mps 764 mmHg 81%
    10:00 +14°C° 0 mm 6 mps 764 mmHg 79%
    11:00 +14°C° 0.1 mm 6 mps 764 mmHg 80%
    12:00 +14°C° 0.1 mm 6 mps 763 mmHg 81%
    13:00 +14°C° 0.1 mm 7 mps 763 mmHg 83%
    14:00 +14°C° 0.5 mm 7 mps 762 mmHg 85%
    15:00 +14°C° 0.5 mm 7 mps 762 mmHg 87%
    16:00 +14°C° 0.5 mm 7 mps 761 mmHg 89%
    17:00 +14°C° 0.3 mm 7 mps 761 mmHg 90%
    18:00 +14°C° 0.3 mm 6 mps 761 mmHg 90%
    19:00 +13°C° 0.3 mm 6 mps 761 mmHg 90%
    20:00 +12°C° 0 mm 7 mps 761 mmHg 89%
    21:00 +12°C° 0 mm 7 mps 761 mmHg 88%
    22:00 +11°C° 0 mm 7 mps 761 mmHg 87%
    23:00 +10°C° 0 mm 7 mps 761 mmHg 85%

    28 September, Friday

    Time Temperature Precipitation Wind Pressure Humidity
    00:00 +10°C° 0 mm 6 mps 761 mmHg 83%
    01:00 +9°C° 0 mm 6 mps 762 mmHg 81%
    02:00 +9°C° 0 mm 6 mps 762 mmHg 81%
    03:00 +8°C° 0 mm 5 mps 762 mmHg 82%
    04:00 +8°C° 0 mm 5 mps 762 mmHg 82%
    05:00 +7°C° 0 mm 4 mps 762 mmHg 81%
    06:00 +7°C° 0 mm 4 mps 762 mmHg 81%
    07:00 +8°C° 0 mm 3 mps 762 mmHg 80%
    08:00 +9°C° 0 mm 3 mps 762 mmHg 74%
    09:00 +10°C° 0 mm 2 mps 763 mmHg 68%
    10:00 +13°C° 0 mm 2 mps 763 mmHg 62%
    11:00 +13°C° 0 mm 2 mps 763 mmHg 60%
    12:00 +13°C° 0 mm 2 mps 763 mmHg 57%
    13:00 +14°C° 0 mm 2 mps 763 mmHg 54%
    14:00 +14°C° 0 mm 2 mps 763 mmHg 54%
    15:00 +14°C° 0 mm 2 mps 763 mmHg 55%
    16:00 +14°C° 0 mm 2 mps 762 mmHg 55%
    17:00 +12°C° 0 mm 2 mps 763 mmHg 60%
    18:00 +10°C° 0 mm 2 mps 763 mmHg 65%
    19:00 +9°C° 0 mm 2 mps 763 mmHg 70%
    20:00 +8°C° 0 mm 3 mps 763 mmHg 72%
    21:00 +8°C° 0 mm 3 mps 763 mmHg 73%
    22:00 +8°C° 0 mm 3 mps 764 mmHg 75%
    23:00 +7°C° 0 mm 3 mps 764 mmHg 77%
    Show more